Terminal Aerodrome Forecast
Issued by NWS Sterling, VA

Home | Current Version | Previous Version | Text Only | Print | Product List | Glossary On
Versions: 1 2 3 4 5 6 7 8 9 10 11 12 13 14 15 16 17 18 19 20 21 22 23 24 25 26 27 28 29 30 31 32 33 34 35 36 37 38 39 40 41 42 43 44 45 46 47 48 49 50
000
FTUS41 KLWX 191508 AAT
TAFIAD
TAF AMD
KIAD 191508Z 1915/2018 18008KT P6SM BKN010 OVC018
     FM191700 17008KT P6SM OVC020
     FM191900 17008G15KT P6SM SCT040
     FM200700 18004KT 6SM BR SCT008 BKN025
     FM201600 19005KT P6SM FEW045 SCT250=

USA.gov is the U.S. government's official web portal to all federal, state and local government web resources and services.